EW2244 Weather Reports


Display with metric or nautical units.
time (UTC)temp
F
wind
direction
speed
MPH
gust
MPH
rain 1hr
in
rain 24hr
in
rain mn
in
humidity
%
barometer
mb
20260507095130 65 25 2.0 6.0 0.00 6.97 0.57 70 1014.0
20260507094138 65 212 1.0 6.0 0.00 6.97 0.57 67 1014.1
20260507093126 64 83 0.0 5.0 0.00 6.97 0.57 63 1014.1
20260507092132 64 90 1.0 4.0 0.00 6.97 0.57 67 1013.9
20260507091125 64 60 2.0 5.0 0.00 6.97 0.57 66 1013.9
20260507090133 64 48 2.0 4.0 0.00 6.97 0.57 72 1013.9
20260507085121 64 186 1.0 2.0 0.00 6.97 0.57 72 1013.9
20260507084128 63 186 1.0 3.0 0.00 6.97 0.57 68 1013.9
20260507083140 62 184 1.0 6.0 0.00 6.97 0.57 74 1013.8
20260507082144 62 104 2.0 6.0 0.00 6.97 0.57 70 1013.8
20260507081131 62 107 1.0 3.0 0.00 6.97 0.57 72 1013.8
20260507080118 61 34 1.0 4.0 0.00 6.97 0.57 76 1013.7
20260507075147 60 32 1.0 4.0 0.00 7.13 0.57 71 1013.7
20260507074138 59 48 2.0 5.0 0.00 7.13 0.57 75 1013.7
20260507073124 59 34 1.0 6.0 0.00 7.13 0.57 77 1013.7
20260507072132 59 34 3.0 5.0 0.00 7.13 0.57 76 1013.7
20260507071123 58 32 2.0 6.0 0.00 7.13 0.57 81 1013.7
20260507070130 57 46 2.0 5.0 0.00 7.13 0.57 83 1013.6
20260507065140 57 51 1.0 5.0 0.00 7.13 0.57 83 1013.4
20260507064126 56 36 2.0 5.0 0.00 7.13 0.57 82 1013.3
20260507063137 56 53 2.0 5.0 0.00 7.13 0.57 84 1013.3
20260507062125 55 44 0.0 3.0 0.00 7.13 0.57 86 1013.3
20260507061132 54 360 3.0 8.0 0.00 7.13 0.57 86 1013.1
20260507060140 53 17 1.0 8.0 0.00 7.13 0.57 88 1013.1
20260507055131 52 29 1.0 6.0 0.00 7.36 0.57 89 1013.1
20260507054119 52 38 2.0 5.0 0.00 7.36 0.57 91 1013.0
20260507053127 52 24 2.0 7.0 0.00 7.36 0.57 91 1012.9
20260507052132 51 41 2.0 8.0 0.00 7.36 0.57 91 1012.8
20260507051124 51 81 1.0 10.0 0.00 7.36 0.57 91 1012.7
20260507050133 51 28 1.0 9.0 0.00 7.36 0.57 91 1012.5
20260507045139 50 24 1.0 5.0 0.00 7.56 0.57 91 1012.5
20260507044127 50 13 2.0 9.0 0.00 7.56 0.57 91 1012.3
20260507043118 50 51 2.0 8.0 0.00 7.56 0.57 92 1012.2
20260507042125 50 350 1.0 4.0 0.00 7.56 0.57 92 1012.1
20260507041133 50 56 1.0 9.0 0.00 7.56 0.57 93 1012.1
20260507040121 50 29 2.0 8.0 0.00 7.56 0.57 93 1012.1
20260507035132 50 54 2.0 10.0 0.00 7.64 0.57 94 1012.1
20260507034138 50 32 2.0 5.0 0.00 7.64 0.57 93 1012.1
20260507033145 50 42 1.0 6.0 0.00 7.64 0.57 93 1012.0
20260507032130 51 350 1.0 6.0 0.00 7.64 0.57 93 1012.1
20260507031120 51 36 2.0 5.0 0.00 7.64 0.57 93 1012.1
20260507030129 51 36 1.0 5.0 0.00 7.64 0.57 93 1012.0
20260507025138 51 36 0.0 4.0 0.00 7.80 0.57 93 1011.9
20260507024125 51 32 1.0 4.0 0.00 7.80 0.57 93 1011.9
20260507023119 51 27 1.0 5.0 0.00 7.80 0.57 94 1012.1
20260507022122 52 355 1.0 6.0 0.00 7.80 0.57 94 1012.0
20260507021131 52 33 1.0 4.0 0.04 7.80 0.57 94 1012.1
20260507020122 52 32 2.0 5.0 0.12 7.80 0.57 93 1012.0
20260507015130 52 77 1.0 5.0 0.16 7.80 0.57 93 1011.9
20260507014135 52 132 1.0 5.0 0.16 7.80 0.57 94 1011.9
20260507013120 52 34 0.0 3.0 0.16 7.80 0.57 94 1012.0
20260507012130 52 39 1.0 5.0 0.16 7.80 0.57 94 1011.9
20260507011159 52 82 0.0 5.0 0.12 7.76 0.56 93 1011.8
20260507010124 52 338 1.0 2.0 0.04 7.68 0.54 94 1011.7
20260507005133 52 339 1.0 4.0 0.00 7.64 0.53 94 1011.7
20260507004125 52 5 1.0 4.0 0.00 7.64 0.53 94 1011.8
20260507003131 52 28 1.0 3.0 0.00 7.64 0.53 94 1011.8
20260507002156 52 33 1.0 8.0 0.00 7.64 0.53 93 1011.8
20260507001141 52 51 1.0 2.0 0.00 7.64 0.53 94 1011.8
20260507000127 52 355 0.0 5.0 0.04 7.64 0.53 94 1011.7
20260506235138 52 221 0.0 5.0 0.20 7.64 0.53 94 1011.7
20260506234125 52 132 1.0 3.0 0.43 7.64 0.53 94 1011.8
20260506233151 52 351 2.0 6.0 0.71 7.64 0.53 94 1011.8
20260506232137 52 9 1.0 4.0 0.83 7.64 0.53 94 1011.7
20260506231129 52 159 0.0 1.0 1.30 7.64 0.53 95 1011.7
20260506230138 52 159 0.0 1.0 1.97 7.60 0.52 95 1011.7
20260506225145 52 159 0.0 3.0 1.85 7.40 0.47 94 1011.8
20260506224133 52 155 0.0 0.0 1.69 7.20 0.42 94 1011.7
20260506223124 53 155 0.0 1.0 1.46 6.93 0.35 94 1011.7
20260506222129 53 155 0.0 2.0 1.34 6.77 0.31 94 1011.6
20260506221157 53 157 0.0 2.0 1.18 6.34 0.20 94 1011.7
20260506220122 53 154 1.0 5.0 1.06 5.59 0.01 94 1011.4
20260506215134 53 26 0.0 6.0 1.02 5.55 1.41 94 1011.3
20260506214139 53 5 2.0 4.0 0.98 5.51 1.40 94 1011.3
20260506213124 52 19 0.0 4.0 0.94 5.47 1.39 94 1011.2
20260506212125 52 19 1.0 4.0 0.91 5.43 1.38 93 1011.2
20260506211135 53 33 1.0 5.0 0.55 5.08 1.29 90 1011.4
20260506210120 53 169 0.0 3.0 0.00 4.53 1.15 91 1011.2
20260506205127 53 170 0.0 3.0 0.04 4.53 1.15 91 1011.2
20260506204132 53 19 1.0 4.0 0.28 4.53 1.15 91 1011.1
20260506203123 54 288 0.0 2.0 0.39 4.53 1.15 90 1011.0
20260506202127 54 290 1.0 4.0 0.39 4.53 1.15 90 1011.0
20260506201130 53 310 0.0 2.0 0.39 4.53 1.15 91 1010.9
20260506200136 54 311 1.0 3.0 0.39 4.53 1.15 91 1010.9
20260506195129 54 26 0.0 2.0 0.35 4.49 1.14 90 1010.7
20260506194134 54 26 0.0 1.0 0.12 4.25 1.08 89 1010.6
20260506193141 54 26 0.0 2.0 0.00 4.13 1.05 88 1010.5
20260506192125 54 26 1.0 3.0 0.00 4.13 1.05 87 1010.2
20260506191125 55 26 2.0 9.0 0.00 4.13 1.05 85 1010.1
20260506190130 55 22 2.0 7.0 0.00 4.13 1.05 85 1009.8
20260506185132 55 355 0.0 5.0 0.00 4.13 1.05 84 1009.7
20260506184131 56 43 0.0 5.0 0.00 4.13 1.05 81 1009.4
20260506183120 56 30 2.0 11.0 0.00 4.13 1.05 80 1009.0
20260506182124 56 355 2.0 9.0 0.00 4.13 1.05 80 1008.9
20260506181129 56 90 1.0 5.0 0.00 4.13 1.05 79 1009.0
20260506180133 56 27 0.0 4.0 0.00 4.13 1.05 81 1009.0
20260506175142 56 25 1.0 2.0 0.00 4.17 1.05 80 1008.5
20260506174126 57 25 1.0 5.0 0.00 4.17 1.05 78 1008.4
20260506173134 57 348 1.0 4.0 0.00 4.17 1.05 75 1008.4
20260506172139 58 355 0.0 5.0 0.00 4.17 1.05 75 1008.4
20260506171144 59 44 2.0 6.0 0.00 4.17 1.05 72 1008.4
20260506170132 60 37 1.0 3.0 0.00 4.17 1.05 70 1008.3
20260506165137 61 18 0.0 3.0 0.00 4.17 1.05 71 1008.1
20260506164142 61 11 2.0 4.0 0.00 4.17 1.05 69 1008.0
20260506163126 61 82 1.0 4.0 0.00 4.17 1.05 72 1007.8
20260506162137 59 74 0.0 4.0 0.00 4.17 1.05 72 1007.9
20260506161121 59 360 2.0 6.0 0.00 4.17 1.05 71 1007.7
20260506160127 58 19 2.0 11.0 0.00 4.17 1.05 74 1007.4
20260506155132 57 44 4.0 9.0 0.00 4.17 1.05 73 1007.3
20260506154121 57 55 2.0 8.0 0.00 4.17 1.05 73 1007.6
20260506153127 57 32 3.0 10.0 0.00 4.17 1.05 73 1007.7
20260506152152 58 139 4.0 10.0 0.00 4.17 1.05 72 1007.7
20260506151137 59 44 3.0 6.0 0.00 4.17 1.05 72 1007.8
20260506150126 60 53 2.0 8.0 0.00 4.17 1.05 69 1007.8
20260506145129 62 317 3.0 10.0 0.00 4.17 1.05 71 1007.9
20260506144134 62 36 2.0 5.0 0.00 4.17 1.05 74 1007.8
20260506143139 61 36 2.0 10.0 0.00 4.17 1.05 72 1007.9
20260506142127 62 23 2.0 6.0 0.00 4.17 1.05 74 1007.7
20260506141133 61 44 3.0 8.0 0.00 4.17 1.05 75 1007.6
20260506140159 61 22 2.0 6.0 0.00 4.17 1.05 78 1007.8
20260506135123 61 348 1.0 6.0 0.00 4.21 1.05 78 1008.0
20260506134132 61 13 2.0 6.0 0.00 4.21 1.05 76 1008.1
20260506133159 60 29 2.0 6.0 0.00 4.21 1.05 81 1008.1
20260506132201 59 28 1.0 5.0 0.00 4.21 1.05 83 1008.2
20260506131126 59 338 2.0 10.0 0.00 4.21 1.05 81 1008.3
20260506130130 60 53 4.0 9.0 0.00 4.21 1.05 80 1008.3
20260506125140 59 42 2.0 7.0 0.00 4.21 1.05 83 1008.3
20260506124126 58 48 3.0 7.0 0.00 4.21 1.05 85 1008.2
20260506123132 58 80 3.0 9.0 0.00 4.21 1.05 87 1008.1
20260506122138 57 64 4.0 10.0 0.00 4.21 1.05 91 1008.0
20260506121147 56 30 4.0 9.0 0.12 4.21 1.05 91 1008.1
20260506120133 55 22 3.0 11.0 1.93 4.21 1.05 93 1008.1
20260506115139 54 59 3.0 6.0 2.83 4.25 1.05 97 1008.1
20260506114125 51 9 2.0 8.0 2.99 4.25 1.05 96 1008.1
20260506113137 50 40 0.0 6.0 2.99 4.25 1.05 94 1008.3
20260506112123 51 62 2.0 6.0 2.95 4.21 1.04 93 1008.2
20260506111128 52 48 1.0 15.0 3.03 4.13 1.02 90 1007.8
20260506110141 55 252 2.0 11.0 1.38 2.32 0.56 90 1008.2
20260506105146 56 258 1.0 4.0 0.35 1.34 0.30 95 1007.8
20260506104135 56 63 1.0 8.0 0.31 1.30 0.29 94 1007.5
20260506103200 56 161 1.0 8.0 0.31 1.30 0.29 95 1007.7
20260506102124 56 87 2.0 5.0 0.31 1.30 0.29 95 1007.8
20260506101128 56 137 1.0 8.0 0.12 1.10 0.24 94 1007.8
20260506100158 56 63 2.0 8.0 0.00 0.98 0.21 94 1007.7